Location: Göttingen
(51.5413°N, 9.9158°E)
Time: 05:09:48
(UTC+02:00)

Envisat - Pass Details

Date: 28 January 2022
Orbit: 764 x 765 km, 98.2° (Epoch: 28 May)

Event Time Altitude Azimuth Distance (km) Brightness Sun altitude
Rises 04:03:58 0° 25° (NNE) 3,243 6.8 -37.1°
Reaches altitude 10° 04:06:56 10° 43° (NE) 2,311 6.1 -36.6°
Maximum altitude 04:10:35 20° 89° (E) 1,734 5.4 -36.1°
Drops below altitude 10° 04:14:13 10° 135° (SE) 2,299 5.7 -35.6°
Sets 04:17:08 0° 153° (SSE) 3,220 6.4 -35.1°
